Overview Statistics Trail Chart Weather Telemetry Raw packets
 

This is the latest recevied weather packets stored in our database for station/object HS3UAA-1. If no packets are shown the sender has not sent any weather packets the latest 10 day(s).

<< 1 2 3 4 5 6 >>
Time Temp. Humidity Pressure Rain* Wind** Luminosity Snow
1788654780 30.56° C 47% 997 hPa - - 0 W/m² -
1788654458 30.56° C 41% 997 hPa - - 0 W/m² -
1788654029 31.11° C 40% 997 hPa - - 0 W/m² -
1788653433 33.33° C 45% 997 hPa - - 0 W/m² -
1788653111 34.44° C 48% 997 hPa - - 0 W/m² -
1788652789 33.33° C 50% 997 hPa - - 0 W/m² -
1788652466 33.33° C 50% 997 hPa - - 0 W/m² -
1788652145 34.44° C 48% 997 hPa - - 0 W/m² -
1788651822 33.89° C 48% 996 hPa - - 0 W/m² -
1788651501 33.89° C 49% 996 hPa - - 0 W/m² -
1788651179 34.44° C 47% 996 hPa - - 0 W/m² -
1788650856 33.89° C 48% 996 hPa - - 0 W/m² -
1788650534 34.44° C 48% 996 hPa - - 0 W/m² -
1788650212 34.44° C 47% 996 hPa - - 0 W/m² -
1788649890 33.89° C 48% 996 hPa - - 0 W/m² -
1788649568 33.89° C 48% 996 hPa - - 0 W/m² -
1788649246 33.89° C 48% 996 hPa - - 0 W/m² -
1788648924 33.89° C 48% 996 hPa - - 0 W/m² -
1788648602 33.33° C 49% 996 hPa - - 0 W/m² -
1788648279 33.89° C 48% 996 hPa - - 0 W/m² -
1788647957 33.89° C 48% 996 hPa - - 0 W/m² -
1788647635 34.44° C 47% 996 hPa - - 0 W/m² -
1788647313 33.89° C 48% 996 hPa - - 0 W/m² -
1788646991 33.33° C 49% 996 hPa - - 0 W/m² -
1788646669 33.89° C 48% 996 hPa - - 0 W/m² -

* Rain since midnight (hover to see other rain measurements)
** Current wind speed in m/s (hover to see current wind gust speed)